Aérodrome :
LOGIN :

S'inscrire | Disclaimer

   EN    FR    IT 

 










Légende :    VFR   VFR Marginal   IFR   IFR Intensif   IFR Très Intensif
Visi : 
Plafond : 
>= 8 km
>= 3000ft
5 à 8 km
1000 à 3000 ft
1500m à 5 km
500 à 1000 ft
800 à 1500m
200 à 500 ft
< 800m
< 200 ft
Symboles :   Orages  Brouillard  Fortes neiges  Fortes précipitations  Vent > 20 kt
SIGMETs :   Divers  Orages  Givrage  Turbulence  Onde Orograph.  Cendres Volcan.







- Altitude de l'aérodrome : 266 ft
- Code IATA : NCL
- Voir les cartes d'approche


EGNT - Newcastle

DERNIER METAR :
  • 200820Z VRB02KT 8000 NSC 14/09 Q1032

METARs EXPIRÉS :
  • 200750Z VRB02KT 8000 NSC 12/09 Q1032
  • 200720Z 22003KT 8000 NSC 09/08 Q1032
  • 200650Z 21003KT 8000 NSC 08/07 Q1032
  • 200620Z VRB01KT 8000 NSC 07/07 Q1032
  • 200550Z 19002KT 8000 NSC 06/06 Q1032

TAF TAF EGNT
Valide du 20 à 06h jusqu'au 21 à 06h UTC


200509Z 2006/2106 VRB04KT 8000 NSC
PROB30 2006/2007 2000 MIFG
BECMG 2007/2010 CAVOK
PROB30
TEMPO 2103/2106 8000
ATIS : +44 191 214 3400
Pas de NOTAMs connus pour ce terrain.



MET'MAP, la Météo Aéronautique d'un coup d'oeil ! - Copyright ORBIFLY Décembre 2007 - Disclaimer

ORBIFLY MET'MAP TEAM :

Programmation & Développement : Alexandra Zaïnal
Conception & Développement : Baudouin d'Aumeries
Co-Programmation & Développement : Marc-Olivier Méhu
Soutien technique & logistique : Manuel Goepfert

Contact : metmap@orbifly.com




SOURCES & CREDITS :

   NOAA